Tracking 17925 objects as of 22-January-2017
HD Live streaming from Space Station
objects crossing your sky now

THORAD AGENA D DEB

Track THORAD AGENA D DEB now!
10-day predictions


NORAD ID: 4177
Int'l Code: 1969-082AV
Perigee: 857.2 km
Apogee: 1,026.3 km
Inclination: 70.1 °
Period: 103.7 minutes
Semi major axis: 7312 km
RCS: 0.0743 m2 (small)
Launch date: September 30, 1969
Source: United States (US)
Launch site: AIR FORCE WESTERN TEST RANGE (AFWTR)

Note: This is SATELLITE DEBRIS
Your satellite tracking list
Your tracking list is empty





NASA's NSSDC Master Catalog

Two Line Element Set (TLE):
1  4177U 69082AV  17020.78543266 +.00000271 +00000-0 +25463-3 0  9998
2  4177 070.0708 258.7729 0115599 146.5185 214.3296 13.88296881379081
Source of the keplerian elements: AFSPC